Printer-friendly version

IAU Minor Planet Center

Minor Planet Center

MPEC 2006-H36 : 2006 HR29

The following Minor Planet Electronic Circular may be linked-to from your own Web pages, but must not otherwise be redistributed electronically.


Read MPEC 2006-H35 Read MPEC 2006-H37


M.P.E.C. 2006-H36                                Issued 2006 Apr. 25, 19:13 UT

     The Minor Planet Electronic Circulars contain information on unusual
         minor planets and routine data on comets.  They are published
   on behalf of Commission 20 of the International Astronomical Union by the
          Minor Planet Center, Smithsonian Astrophysical Observatory,
                          Cambridge, MA 02138, U.S.A.

                  Supported in part by the Brinson Foundation
                  Supported in part by the TABASGO Foundation
             Prepared using the Tamkin Foundation Computer Network

                              MPC@CFA.HARVARD.EDU
          URL http://cfa-www.harvard.edu/iau/mpc.html  ISSN 1523-6714

                                   2006 HR29

Observations:
     K06H29R* C2006 04 24.42691 09 27 14.29 -18 43 44.8          18.7 V EH036E12
     K06H29R  C2006 04 24.43951 09 27 20.44 -18 42 58.5          18.7 V EH036E12
     K06H29R  C2006 04 24.46463 09 27 32.72 -18 41 26.3          18.6 V EH036E12
     K06H29R  C2006 04 24.52054 09 28 00.15 -18 38 00.6          18.5 V EH036E12
     K06H29R  C2006 04 24.52164 09 28 00.66 -18 37 55.9          18.6 V EH036E12
     K06H29R  C2006 04 24.53369 09 28 06.63 -18 37 11.5          18.7 V EH036E12
     K06H29R  C2006 04 24.53478 09 28 07.14 -18 37 07.5          18.4 V EH036E12
     K06H29R  C2006 04 24.54679 09 28 13.08 -18 36 22.6          18.6 V EH036E12
     K06H29R  C2006 04 24.54789 09 28 13.62 -18 36 18.8          18.7 V EH036E12
     K06H29R  C2006 04 24.55994 09 28 19.63 -18 35 34.5          18.7 V EH036E12
     K06H29R  C2006 04 24.56104 09 28 20.17 -18 35 29.7          18.6 V EH036E12
     K06H29R  C2006 04 24.83597 09 30 41.13 -18 20 16.4          18.6 R EH036113
     K06H29R  C2006 04 24.83708 09 30 41.68 -18 20 13.3          18.9 R EH036113
     K06H29R  C2006 04 24.83819 09 30 42.24 -18 20 07.9          19.1 R EH036113
     K06H29R  C2006 04 25.12598 09 33 06.69 -18 02 44.8          18.2 V EH036703
     K06H29R  C2006 04 25.12855 09 33 07.88 -18 02 36.6          18.4 V EH036703
     K06H29R  C2006 04 25.13105 09 33 09.03 -18 02 28.2          18.5 V EH036703
     K06H29R  C2006 04 25.13431 09 33 10.62 -18 02 16.7          18.5 V EH036G96
     K06H29R  C2006 04 25.13485 09 33 10.87 -18 02 14.8          18.6 V EH036G96
     K06H29R  C2006 04 25.13538 09 33 11.12 -18 02 12.6          18.6 V EH036G96
     K06H29R  C2006 04 25.13591 09 33 11.37 -18 02 10.8          18.6 V EH036G96
     K06H29R 7C2006 04 25.14910 09 33 17.64 -18 01 22.9                 EH036696
     K06H29R 7C2006 04 25.14997 09 33 17.99 -18 01 19.5                 EH036696
     K06H29R 5C2006 04 25.16987 09 33 27.77 -18 00 11.1          18.5 R EH036673
     K06H29R 5C2006 04 25.17178 09 33 28.60 -18 00 04.1                 EH036673
     K06H29R 5C2006 04 25.17767 09 33 31.67 -17 59 42.0                 EH036673
     K06H29R  C2006 04 25.17850 09 33 31.60 -17 59 37.2          19.0 R EH036854
     K06H29R 5C2006 04 25.17986 09 33 32.61 -17 59 34.3                 EH036673
     K06H29R 5C2006 04 25.18359 09 33 34.30 -17 59 20.8                 EH036673
     K06H29R  C2006 04 25.18393 09 33 34.16 -17 59 18.2          18.9 R EH036854
     K06H29R 5C2006 04 25.18590 09 33 35.40 -17 59 12.6                 EH036673
     K06H29R  C2006 04 25.21305 09 33 48.28 -17 57 34.9                 EH036682
     K06H29R  C2006 04 25.22037 09 33 51.78 -17 57 07.8                 EH036682
     K06H29R  C2006 04 25.22770 09 33 55.26 -17 56 41.0                 EH036682

Observer details:
113 Volkssternwarte Drebach, Schoenbrunn.  Observer A. Knoefel.  0.5-m f/5
    reflector + CCD.
673 Table Mountain Observatory, Wrightwood.  Observer D. Mayes.  0.4-m f/8.4
    Cassegrain + CCD.
682 Kanab.  Observer E. Sheridan.  0.36-m f/5.5 Schmidt-Cassegrain + CCD.
696 Whipple Observatory, Mt. Hopkins.  Observer K. Smalley.  Measurer
    T. B. Spahr.  1.2-m reflector + KeplerCam.
703 Catalina Sky Survey.  Observer R. A. Kowalski.  Measurers E. C. Beshore,
    E. J. Christensen, G. J. Garradd, A. R. Gibbs, A. D. Grauer, R. E. Hill,
    R. A. Kowalski, S. M. Larson, R. H. McNaught.  0.68-m Schmidt + CCD.
854 Sabino Canyon Observatory, Tucson.  Observer J. E. McGaha.  0.36-m f/10.0
    Schmidt-Cassegrain + CCD.
E12 Siding Spring Survey.  Observer G. J. Garradd.  Measurers E. C. Beshore,
    E. J. Christensen, G. J. Garradd, A. R. Gibbs, A. D. Grauer, R. E. Hill,
    R. A. Kowalski, S. M. Larson, R. H. McNaught.  0.5-m Uppsala Schmidt + CCD.
G96 Mt. Lemmon Survey.  Observer R. E. Hill.  Measurers E. C. Beshore,
    E. J. Christensen, G. J. Garradd, A. R. Gibbs, A. D. Grauer, R. E. Hill,
    R. A. Kowalski, S. M. Larson, R. H. McNaught.  1.5-m reflector + CCD.

Orbital elements:
2006 HR29                                                Earth MOID = 0.0961 AU
Epoch 2006 Mar. 6.0 TT = JDT 2453800.5                  MPC
M  43.36791              (2000.0)            P               Q
n   0.99074152     Peri.  215.34590     +0.04925217     -0.98956331
a   0.9965425      Node   232.21884     +0.95127339     +0.08779686
e   0.2576930      Incl.    9.86579     +0.30438983     -0.11426359
P   0.99           H   20.7           G   0.15           U   9
Residuals in seconds of arc
060424 E12  0.1+  0.7-    060424 113  0.6+  1.1-    060425 673 (2.9-  0.9-)
060424 E12  0.1+  0.4-    060424 113  0.9+  0.3+    060425 673  1.0+  0.1-
060424 E12  0.3+  0.2-    060425 703  0.3+  1.4+    060425 854  0.5+  0.3-
060424 E12  0.2+  0.4-    060425 703  0.1-  0.4+    060425 673  0.4-  0.3-
060424 E12  0.2-  0.3+    060425 703  0.6-  0.2-    060425 673  1.5-  0.2-
060424 E12  0.1+  0.1+    060425 G96  0.0   0.4-    060425 854  0.3+  0.9-
060424 E12  0.3-  0.1+    060425 G96  0.1-  0.4-    060425 673  1.4-  0.3-
060424 E12  0.3-  0.5+    060425 G96  0.1-  0.1-    060425 682  1.6+  0.2+
060424 E12  0.3-  0.2+    060425 G96  0.1-  0.2-    060425 682  1.7+  0.8+
060424 E12  0.2+  0.1-    060425 696  0.2+  0.3-    060425 682  1.4+  0.9+
060424 E12  0.1+  0.6+    060425 696  0.7-  0.0
060424 113  0.5+  0.1-    060425 673  1.9-  1.1-

Ephemeris:
2006 HR29                a,e,i = 1.00, 0.26, 10                  q = 0.7397
Date    TT    R. A. (2000) Decl.     Delta      r     Elong.  Phase     V
2006 04 25    09 32.06   -18 09.6    0.145    1.072   113.4    59.4    18.8
2006 05 05    10 40.23   -09 34.4    0.181    1.109   119.6    52.2    19.1
2006 05 15    11 26.74   -04 07.9    0.231    1.143   119.8    50.1    19.7
2006 05 25    12 01.25   -01 06.7    0.289    1.173   117.1    50.2    20.2
2006 06 04    12 29.39   +00 18.5    0.351    1.198   113.4    51.0    20.7
2006 06 14    12 54.06   +00 41.6    0.417    1.219   109.3    51.9    21.1
2006 06 24    13 16.79   +00 24.3    0.484    1.235   105.1    52.6    21.5
2006 07 04    13 38.60   -00 20.7    0.552    1.246   101.0    53.2    21.8

Gareth V. Williams           (C) Copyright 2006 MPC           M.P.E.C. 2006-H36

Read MPEC 2006-H35 Read MPEC 2006-H37


Our Web policy. Index to the CBAT/MPC/ICQ pages.


Valid HTML 4.01!